Ionia, MI

9:33 AM EDT on August 16, 2017 (GMT -0400)
Ionia

Weather History for KY70 - December, 2013

Change the Weather History Date:

Tuesday, December 17, 2013

  Actual Average (KGRR) Record (KGRR)
Temperature  
Mean Temperature 21 °F -  
Max Temperature 29 °F 32 °F 54 °F (2006)
Min Temperature 13 °F 19 °F -5 °F (1973)
Degree Days  
Heating Degree Days 44    
Moisture  
Dew Point 21 °F    
Average Humidity 90    
Maximum Humidity 97    
Minimum Humidity 80    
Precipitation  
Precipitation 0.00 in - - ()
Sea Level Pressure  
Sea Level Pressure 29.89 in    
Wind  
Wind Speed 9 mph (WSW)    
Max Wind Speed 22 mph    
Max Gust Speed 28 mph    
Visibility 6 miles    
Events Snow    
Averages and records for this station are not official NWS values.
T = Trace of Precipitation, MM = Missing Value Source: NWS Daily Summary

Daily Weather History Graph

Daily Weather History Graph

Search for Another Location

Airport or City:

Trip Planner

Search our weather history database for the weather conditions in past years. The results will help you decide how hot, cold, wet, or windy it might be!

Date:

Astronomy

Dec. 17, 2013 Rise Set
Actual Time 8:05 AM EST 5:07 PM EST
Civil Twilight 7:33 AM EST 5:39 PM EST
Nautical Twilight 6:57 AM EST 6:15 PM EST
Astronomical Twilight 6:23 AM EST 6:49 PM EST
Moon 5:47 PM EST (12/17) 8:00 AM EST (12/17)
Length of Visible Light 10h 05m
Length of Day
9h 01m
Full, 100% of the Moon is Illuminated
Dec 17
Full
Dec 25
Last Quarter
Jan 1
New
Jan 7
First Quarter
Jan 15
Full

Hourly Weather History & Observations

Time (EST) Temp. Windchill Dew Point Humidity Pressure Visibility Wind Dir Wind Speed Gust Speed Precip Events Conditions
12:14 AM 13.6 °F 7.7 °F 11.3 °F 90% 29.98 in 4.0 mi SSE 3.5 mph - N/A Snow Light Snow
12:34 AM 14.0 °F 5.1 °F 11.7 °F 90% 29.96 in 7.0 mi SSE 5.8 mph - N/A Snow Light Snow
12:54 AM 14.4 °F 3.3 °F 12.0 °F 90% 29.94 in 7.0 mi SSE 8.1 mph - N/A   Overcast
1:14 AM 14.9 °F 4.0 °F 12.6 °F 90% 29.93 in 10.0 mi SSE 8.1 mph - N/A   Overcast
1:34 AM 15.4 °F 6.8 °F 12.7 °F 89% 29.93 in 10.0 mi South 5.8 mph - N/A   Overcast
1:54 AM 15.8 °F 7.2 °F 12.9 °F 88% 29.93 in 10.0 mi SSW 5.8 mph - N/A   Overcast
2:14 AM 16.2 °F 7.6 °F 13.1 °F 88% 29.92 in 7.0 mi SSW 5.8 mph - N/A   Overcast
2:34 AM 16.3 °F 6.7 °F 14.0 °F 90% 29.92 in 4.0 mi SSW 6.9 mph - N/A   Overcast
2:54 AM 16.3 °F 9.2 °F 14.5 °F 93% 29.93 in 5.0 mi SSW 4.6 mph - N/A   Overcast
3:14 AM 16.5 °F 6.9 °F 14.9 °F 93% 29.92 in 7.0 mi SSW 6.9 mph - N/A   Overcast
3:34 AM 16.7 °F 6.2 °F 15.4 °F 95% 29.92 in 7.0 mi SW 8.1 mph - N/A   Overcast
3:54 AM 17.4 °F 9.1 °F 15.6 °F 93% 29.92 in 7.0 mi SW 5.8 mph - N/A   Overcast
4:14 AM 17.8 °F 9.6 °F 16.0 °F 93% 29.91 in 7.0 mi SW 5.8 mph - N/A   Overcast
4:34 AM 18.5 °F 8.4 °F 16.7 °F 93% 29.90 in 7.0 mi SW 8.1 mph - N/A   Overcast
4:54 AM 19.0 °F 8.2 °F 16.7 °F 91% 29.90 in 7.0 mi SW 9.2 mph - N/A   Overcast
5:14 AM 19.4 °F 10.4 °F 17.4 °F 92% 29.90 in 7.0 mi WSW 6.9 mph - N/A   Overcast
5:34 AM 20.3 °F 10.6 °F 18.1 °F 91% 29.91 in 7.0 mi WSW 8.1 mph - N/A   Overcast
5:54 AM 20.5 °F 10.8 °F 18.3 °F 91% 29.91 in 7.0 mi WSW 8.1 mph - N/A   Overcast
6:14 AM 21.2 °F 11.7 °F 19.0 °F 91% 29.90 in 7.0 mi WSW 8.1 mph - N/A   Overcast
6:34 AM 21.9 °F 11.7 °F 19.9 °F 92% 29.90 in 7.0 mi West 9.2 mph - N/A   Overcast
6:54 AM 22.5 °F 12.4 °F 20.3 °F 91% 29.90 in 7.0 mi West 9.2 mph - N/A   Overcast
7:14 AM 23.7 °F 11.5 °F 21.7 °F 92% 29.90 in 7.0 mi West 13.8 mph - N/A   Overcast
7:34 AM 23.9 °F 9.5 °F 22.1 °F 93% 29.90 in 4.0 mi West 19.6 mph 27.6 mph N/A Snow Light Snow
7:54 AM 23.9 °F 9.5 °F 21.6 °F 91% 29.89 in 7.0 mi West 19.6 mph 23.0 mph N/A   Overcast
8:14 AM 23.9 °F 10.8 °F 21.7 °F 91% 29.89 in 5.0 mi WSW 16.1 mph 25.3 mph N/A   Overcast
8:34 AM 23.9 °F 10.8 °F 21.9 °F 92% 29.89 in 5.0 mi WSW 16.1 mph - N/A   Overcast
8:54 AM 23.9 °F 10.8 °F 22.1 °F 93% 29.88 in 5.0 mi WSW 16.1 mph 20.7 mph N/A   Overcast
9:14 AM 24.3 °F 12.7 °F 22.5 °F 93% 29.88 in 5.0 mi SW 12.7 mph 20.7 mph N/A   Overcast
9:34 AM 24.4 °F 13.0 °F 22.5 °F 92% 29.86 in 5.0 mi SSW 12.7 mph - N/A   Overcast
9:54 AM 24.8 °F 12.4 °F 22.6 °F 91% 29.85 in 7.0 mi SSW 15.0 mph - N/A   Overcast
10:14 AM 25.2 °F 13.3 °F 22.5 °F 89% 29.84 in 5.0 mi SSW 13.8 mph 20.7 mph N/A   Overcast
10:34 AM 25.3 °F 15.3 °F 22.6 °F 89% 29.86 in 2.5 mi SW 10.4 mph - N/A Snow Light Snow
10:54 AM 25.5 °F 15.5 °F 23.4 °F 92% 29.86 in 2.5 mi SW 10.4 mph - N/A Snow Light Snow
11:14 AM 25.7 °F 15.1 °F 23.0 °F 89% 29.85 in 3.0 mi SW 11.5 mph 20.7 mph N/A Snow Light Snow
11:34 AM 25.7 °F 12.7 °F 22.6 °F 88% 29.84 in 3.0 mi SW 17.3 mph 21.9 mph N/A Snow Light Snow
11:54 AM 26.4 °F 12.8 °F 22.6 °F 86% 29.84 in 3.0 mi WSW 19.6 mph 23.0 mph N/A   Overcast
12:14 PM 26.2 °F 11.9 °F 23.0 °F 88% 29.82 in 2.0 mi WSW 21.9 mph 27.6 mph N/A   Overcast
12:34 PM 26.2 °F 12.6 °F 23.0 °F 88% 29.82 in 4.0 mi WSW 19.6 mph 24.2 mph N/A Snow Light Snow
12:54 PM 26.4 °F 13.6 °F 23.0 °F 87% 29.82 in 2.0 mi WSW 17.3 mph 25.3 mph N/A Snow Light Snow
1:14 PM 26.8 °F 14.5 °F 23.5 °F 88% 29.81 in 2.5 mi WSW 16.1 mph - N/A Snow Light Snow
1:34 PM 26.8 °F 14.5 °F 23.5 °F 88% 29.81 in 3.0 mi WSW 16.1 mph 20.7 mph N/A Snow Light Snow
1:54 PM 27.0 °F 15.2 °F 23.9 °F 88% 29.80 in 1.5 mi WSW 15.0 mph - N/A Snow Light Snow
2:14 PM 26.6 °F 14.7 °F 23.9 °F 90% 29.80 in 2.5 mi SW 15.0 mph 21.9 mph N/A Snow Light Snow
2:34 PM 26.6 °F 16.2 °F 23.9 °F 90% 29.80 in 2.0 mi SW 11.5 mph - N/A Snow Light Snow
2:54 PM 27.1 °F 15.4 °F 24.8 °F 91% 29.80 in 1.2 mi WSW 15.0 mph - N/A Snow Light Snow
3:14 PM 27.3 °F 16.6 °F 25.0 °F 91% 29.81 in 1.8 mi WSW 12.7 mph - N/A Snow Light Snow
3:34 PM 27.5 °F 17.4 °F 25.5 °F 92% 29.81 in 3.0 mi WSW 11.5 mph - N/A Snow Light Snow
3:54 PM 28.0 °F 18.1 °F 26.1 °F 92% 29.82 in 4.0 mi WSW 11.5 mph - N/A Snow Light Snow
4:14 PM 28.4 °F 19.1 °F 26.4 °F 92% 29.83 in 4.0 mi West 10.4 mph - N/A Snow Light Snow
4:34 PM 29.8 °F 18.0 °F 25.7 °F 85% 29.84 in 7.0 mi West 17.3 mph 24.2 mph N/A   Overcast
4:54 PM 29.8 °F 19.8 °F 24.8 °F 81% 29.84 in 10.0 mi WNW 12.7 mph 20.7 mph N/A   Overcast
5:14 PM 29.7 °F 18.6 °F 24.6 °F 81% 29.85 in 10.0 mi WNW 15.0 mph 20.7 mph N/A   Overcast
5:34 PM 29.3 °F 19.1 °F 24.6 °F 83% 29.86 in 10.0 mi West 12.7 mph 17.3 mph N/A   Overcast
5:54 PM 28.6 °F 19.9 °F 24.1 °F 83% 29.87 in 10.0 mi West 9.2 mph - N/A   Overcast
6:14 PM 28.0 °F 18.1 °F 23.7 °F 84% 29.88 in 10.0 mi WNW 11.5 mph 17.3 mph N/A   Scattered Clouds
6:34 PM 27.5 °F 17.4 °F 22.5 °F 81% 29.89 in 10.0 mi WNW 11.5 mph - N/A   Clear
6:54 PM 26.4 °F 16.6 °F 21.0 °F 80% 29.89 in 10.0 mi WNW 10.4 mph - N/A   Clear
7:14 PM 25.3 °F 16.0 °F 20.5 °F 82% 29.90 in 10.0 mi West 9.2 mph - N/A   Clear
7:34 PM 23.7 °F 16.6 °F 19.2 °F 83% 29.91 in 10.0 mi West 5.8 mph - N/A   Mostly Cloudy
7:54 PM 24.3 °F 18.4 °F 21.0 °F 87% 29.92 in 10.0 mi West 4.6 mph - N/A   Overcast
8:14 PM 22.5 °F 17.8 °F 19.9 °F 90% 29.92 in 10.0 mi West 3.5 mph - N/A   Mostly Cloudy
8:34 PM 22.5 °F - 19.9 °F 90% 29.92 in 10.0 mi Calm Calm - N/A   Overcast
8:54 PM 21.2 °F 14.9 °F 19.4 °F 93% 29.93 in 10.0 mi WSW 4.6 mph - N/A   Overcast
9:14 PM 22.5 °F 17.8 °F 19.4 °F 88% 29.93 in 10.0 mi WSW 3.5 mph - N/A   Overcast
9:34 PM 23.0 °F 15.8 °F 20.7 °F 91% 29.94 in 1.8 mi WSW 5.8 mph - N/A Snow Light Snow
9:54 PM 24.4 °F 18.6 °F 22.8 °F 94% 29.94 in 1.0 mi SW 4.6 mph - N/A Snow Light Snow
10:14 PM 24.4 °F - 23.4 °F 96% 29.94 in 3.0 mi Calm Calm - N/A Snow Light Snow
10:34 PM 24.1 °F - 23.0 °F 96% 29.94 in 5.0 mi Calm Calm - N/A Snow Light Snow
10:54 PM 24.4 °F 20.1 °F 23.5 °F 96% 29.95 in 4.0 mi WSW 3.5 mph - N/A Snow Light Snow
11:14 PM 24.6 °F - 23.9 °F 97% 29.95 in 4.0 mi Calm Calm - N/A Snow Light Snow
11:34 PM 23.9 °F - 23.0 °F 96% 29.95 in 4.0 mi Calm Calm - N/A Snow Light Snow
11:54 PM 23.9 °F - 23.0 °F 96% 29.95 in 4.0 mi Calm Calm - N/A Snow Light Snow